Location: Unspecified
(0.0000°N, 0.0000°E)
Time: 02:10:41
(UTC+00:00)

Envisat - Pass Details

Date: 26 October 2020
Orbit: 764 x 766 km, 98.1° (Epoch: 25 October)

Event Time Altitude Azimuth Distance (km) Brightness Sun altitude
Rises 18:40:23 0° 203° (SSW) 3,229 6.8 -13.8°
Reaches altitude 10° 18:43:50 10° 227° (SW) 2,300 6.4 -14.6°
Maximum altitude 18:46:20 14° 257° (WSW) 2,043 6.5 -15.2°
Drops below altitude 10° 18:48:51 10° 287° (WNW) 2,295 6.4 -15.8°
Sets 18:52:19 0° 313° (NW) 3,217 6.7 -16.7°
